RYR5WZ EBCI-LFMP

Flight info

Callsign RYR5WZ
Flight time 1h 31m
Altitude 31000
Route CIV N872 LESDO DCT KOVIN DCT DUCRA/N0433F330 UM728 RESMI UN857 DISAK DCT DIRMO DCT ETAMO DCT ADEKA DCT MOKDI DCT MEN DCT BADAM DCT NEKTA DCT SIJAN
Aircraft B738/M-SDE3FGILRWY/SB1

Departure

Time 2026-04-28 10:30
Airport Brussels South Charleroi Airport (EBCI)

Arrival

Time 2026-04-28 12:02
Airport Perpignan-Rivesaltes (Llabanère) Airport (LFMP)
Time Latitude Longitude Altitude Speed Heading
2026-04-28 10:15 50.46806 4.46875 584 ft 0 kts 335°
2026-04-28 10:20 50.46792 4.46885 584 ft 4 kts 335°
2026-04-28 10:20 50.46772 4.46900 584 ft 4 kts 323°
2026-04-28 10:21 50.46760 4.46927 585 ft 5 kts 256°
2026-04-28 10:21 50.46770 4.46964 584 ft 3 kts 245°
2026-04-28 10:21 50.46771 4.46966 584 ft 2 kts 245°
2026-04-28 10:23 50.46768 4.46956 584 ft 2 kts 245°
2026-04-28 10:23 50.46756 4.46915 585 ft 6 kts 245°
2026-04-28 10:23 50.46732 4.46833 586 ft 9 kts 245°
2026-04-28 10:24 50.46704 4.46735 587 ft 10 kts 245°
2026-04-28 10:24 50.46674 4.46633 587 ft 10 kts 245°
2026-04-28 10:24 50.46639 4.46539 588 ft 10 kts 213°
2026-04-28 10:24 50.46575 4.46557 590 ft 9 kts 157°
2026-04-28 10:25 50.46523 4.46516 589 ft 10 kts 243°
2026-04-28 10:25 50.46490 4.46403 588 ft 13 kts 245°
2026-04-28 10:25 50.46449 4.46260 590 ft 16 kts 245°
2026-04-28 10:25 50.46398 4.46086 591 ft 19 kts 245°
2026-04-28 10:26 50.46344 4.45900 596 ft 18 kts 245°
2026-04-28 10:26 50.46292 4.45721 596 ft 18 kts 245°
2026-04-28 10:26 50.46242 4.45549 599 ft 17 kts 245°
2026-04-28 10:26 50.46193 4.45380 597 ft 17 kts 245°
2026-04-28 10:27 50.46147 4.45221 598 ft 16 kts 245°
2026-04-28 10:27 50.46100 4.45062 595 ft 16 kts 245°
2026-04-28 10:27 50.46054 4.44903 596 ft 16 kts 245°
2026-04-28 10:27 50.46010 4.44751 595 ft 15 kts 245°
2026-04-28 10:28 50.45967 4.44605 598 ft 14 kts 245°
2026-04-28 10:28 50.45924 4.44466 599 ft 14 kts 239°
2026-04-28 10:28 50.45869 4.44348 598 ft 13 kts 232°
2026-04-28 10:29 50.45755 4.44121 594 ft 15 kts 232°
2026-04-28 10:29 50.45695 4.44002 593 ft 12 kts 226°
2026-04-28 10:29 50.45633 4.44011 593 ft 9 kts 126°
2026-04-28 10:29 50.45632 4.44074 593 ft 2 kts 66°
2026-04-28 10:30 50.45666 4.44194 593 ft 39 kts 65°
2026-04-28 10:30 50.45878 4.44916 593 ft 106 kts 65°
2026-04-28 10:30 50.46269 4.46242 595 ft 159 kts 65°
2026-04-28 10:30 50.46747 4.47821 1327 ft 152 kts 59°
2026-04-28 10:31 50.47399 4.49089 2190 ft 154 kts 46°
2026-04-28 10:31 50.48329 4.50140 2606 ft 185 kts 25°
2026-04-28 10:31 50.49549 4.51051 2816 ft 204 kts 48°
2026-04-28 10:31 50.50271 4.53015 3196 ft 215 kts 64°
2026-04-28 10:32 50.51089 4.55152 3481 ft 237 kts 58°
2026-04-28 10:32 50.52057 4.57321 4100 ft 247 kts 56°
2026-04-28 10:32 50.53104 4.59467 4981 ft 251 kts 47°
2026-04-28 10:32 50.54640 4.60842 5718 ft 263 kts 17°
2026-04-28 10:33 50.56483 4.60972 6554 ft 271 kts 353°
2026-04-28 10:33 50.58273 4.59906 7270 ft 283 kts 329°
2026-04-28 10:33 50.59645 4.57657 8012 ft 291 kts 300°
2026-04-28 10:33 50.60273 4.54629 8779 ft 295 kts 276°
2026-04-28 10:34 50.60294 4.51379 9490 ft 300 kts 266°
2026-04-28 10:34 50.60159 4.48068 10181 ft 305 kts 265°
2026-04-28 10:34 50.59990 4.44679 10622 ft 320 kts 264°
2026-04-28 10:34 50.59810 4.41051 10799 ft 343 kts 264°
2026-04-28 10:35 50.59632 4.37208 11100 ft 359 kts 264°
2026-04-28 10:35 50.59460 4.33253 11756 ft 363 kts 265°
2026-04-28 10:35 50.59298 4.29302 12592 ft 362 kts 264°
2026-04-28 10:35 50.59138 4.25339 13361 ft 364 kts 264°
2026-04-28 10:36 50.58979 4.21343 14131 ft 367 kts 263°
2026-04-28 10:36 50.58818 4.17346 14921 ft 367 kts 264°
2026-04-28 10:36 50.58657 4.13364 15651 ft 369 kts 264°
2026-04-28 10:36 50.58492 4.09315 16350 ft 373 kts 263°
2026-04-28 10:37 50.58324 4.05218 17045 ft 376 kts 263°
2026-04-28 10:37 50.58153 4.01083 17755 ft 379 kts 263°
2026-04-28 10:37 50.57980 3.96912 18449 ft 383 kts 263°
2026-04-28 10:37 50.57805 3.92778 19078 ft 384 kts 263°
2026-04-28 10:38 50.57537 3.88601 19688 ft 383 kts 253°
2026-04-28 10:38 50.56475 3.84798 20276 ft 379 kts 232°
2026-04-28 10:38 50.54681 3.81786 20882 ft 377 kts 216°
2026-04-28 10:38 50.52425 3.79719 21435 ft 377 kts 204°
2026-04-28 10:39 50.50002 3.78068 21974 ft 381 kts 202°
2026-04-28 10:39 50.47539 3.76459 22498 ft 385 kts 202°
2026-04-28 10:39 50.45052 3.74830 23030 ft 388 kts 202°
2026-04-28 10:39 50.42557 3.73169 23571 ft 391 kts 203°
2026-04-28 10:40 50.40049 3.71476 24024 ft 394 kts 203°
2026-04-28 10:40 50.37518 3.69757 24446 ft 397 kts 204°
2026-04-28 10:40 50.34976 3.68031 24938 ft 398 kts 204°
2026-04-28 10:40 50.32440 3.66311 25495 ft 397 kts 204°
2026-04-28 10:41 50.29897 3.64589 25900 ft 400 kts 204°
2026-04-28 10:41 50.27357 3.62872 26235 ft 404 kts 204°
2026-04-28 10:41 50.24765 3.61120 26609 ft 407 kts 204°
2026-04-28 10:41 50.22148 3.59355 27011 ft 409 kts 204°
2026-04-28 10:42 50.19525 3.57588 27397 ft 412 kts 204°
2026-04-28 10:42 50.16879 3.55809 27747 ft 415 kts 204°
2026-04-28 10:42 50.14218 3.54026 28105 ft 417 kts 204°
2026-04-28 10:42 50.11540 3.52234 28511 ft 419 kts 205°
2026-04-28 10:43 50.08858 3.50442 28900 ft 420 kts 205°
2026-04-28 10:43 50.06162 3.48641 29221 ft 423 kts 205°
2026-04-28 10:43 50.03454 3.46834 29546 ft 425 kts 205°
2026-04-28 10:43 50.00737 3.45023 30005 ft 424 kts 205°
2026-04-28 10:44 49.98033 3.43224 30474 ft 422 kts 205°
2026-04-28 10:44 49.95331 3.41428 30830 ft 422 kts 205°
2026-04-28 10:44 49.92622 3.39629 31104 ft 424 kts 204°
2026-04-28 10:44 49.89910 3.37830 31431 ft 424 kts 205°
2026-04-28 10:45 49.87204 3.36037 31859 ft 422 kts 204°
2026-04-28 10:45 49.84500 3.34247 32183 ft 423 kts 204°
2026-04-28 10:45 49.81790 3.32456 32430 ft 424 kts 204°
2026-04-28 10:45 49.79068 3.30657 32745 ft 425 kts 204°
2026-04-28 10:46 49.76351 3.28860 33089 ft 425 kts 204°
2026-04-28 10:46 49.73631 3.27062 33428 ft 424 kts 204°
2026-04-28 10:46 49.70917 3.25268 33728 ft 425 kts 204°
2026-04-28 10:46 49.68219 3.23487 34063 ft 424 kts 204°
2026-04-28 10:47 49.65530 3.21714 34408 ft 422 kts 204°
2026-04-28 10:47 49.62829 3.19936 34624 ft 423 kts 204°
2026-04-28 10:47 49.60113 3.18149 34791 ft 426 kts 204°
2026-04-28 10:47 49.57342 3.16328 35000 ft 427 kts 204°
2026-04-28 10:48 49.54616 3.14540 35241 ft 427 kts 204°
2026-04-28 10:48 49.51909 3.12766 35512 ft 426 kts 204°
2026-04-28 10:48 49.49171 3.10953 35673 ft 429 kts 206°
2026-04-28 10:48 49.46572 3.08712 35853 ft 428 kts 214°
2026-04-28 10:49 49.44095 3.06178 36112 ft 427 kts 215°
2026-04-28 10:49 49.39118 3.01030 36102 ft 432 kts 215°
2026-04-28 10:50 49.34131 2.95929 36095 ft 427 kts 214°
2026-04-28 10:50 49.29226 2.90964 36101 ft 424 kts 214°
2026-04-28 10:51 49.24292 2.85993 36106 ft 423 kts 214°
2026-04-28 10:51 49.20204 2.81883 36090 ft 423 kts 214°
2026-04-28 10:52 49.15278 2.76940 36112 ft 423 kts 214°
2026-04-28 10:52 49.10359 2.72016 36097 ft 422 kts 214°
2026-04-28 10:53 49.05441 2.67103 36107 ft 422 kts 214°
2026-04-28 10:53 49.00528 2.62207 36100 ft 422 kts 214°
2026-04-28 10:54 48.95613 2.57322 36110 ft 421 kts 214°
2026-04-28 10:54 48.90701 2.52450 36109 ft 421 kts 214°
2026-04-28 10:55 48.85812 2.47610 36097 ft 421 kts 214°
2026-04-28 10:55 48.80890 2.42746 36102 ft 422 kts 214°
2026-04-28 10:56 48.75962 2.37888 36109 ft 422 kts 214°
2026-04-28 10:56 48.71026 2.33033 36100 ft 422 kts 214°
2026-04-28 10:57 48.66091 2.28190 36100 ft 423 kts 214°
2026-04-28 10:57 48.61143 2.23346 36104 ft 423 kts 214°
2026-04-28 10:58 48.56011 2.19121 36097 ft 425 kts 202°
2026-04-28 10:58 48.50257 2.16939 36084 ft 428 kts 194°
2026-04-28 10:59 48.44410 2.15150 36078 ft 427 kts 194°
2026-04-28 10:59 48.38599 2.13308 36072 ft 426 kts 195°
2026-04-28 11:00 48.32804 2.11444 36069 ft 425 kts 195°
2026-04-28 11:00 48.26955 2.10346 36067 ft 430 kts 182°
2026-04-28 11:01 48.20994 2.11489 36075 ft 432 kts 175°
2026-04-28 11:01 48.15056 2.12836 36061 ft 431 kts 176°
2026-04-28 11:02 48.09116 2.13631 36070 ft 426 kts 182°
2026-04-28 11:02 48.03187 2.13902 36071 ft 425 kts 182°
2026-04-28 11:03 47.97268 2.14167 36062 ft 424 kts 183°
2026-04-28 11:03 47.91402 2.14480 36071 ft 424 kts 182°
2026-04-28 11:04 47.85503 2.14818 36076 ft 424 kts 182°
2026-04-28 11:04 47.79595 2.15161 36053 ft 424 kts 182°
2026-04-28 11:05 47.73685 2.15505 36044 ft 424 kts 183°
2026-04-28 11:05 47.67791 2.15845 36042 ft 424 kts 183°
2026-04-28 11:06 47.61902 2.16184 36048 ft 424 kts 183°
2026-04-28 11:06 47.56009 2.16522 36025 ft 424 kts 184°
2026-04-28 11:07 47.50126 2.16860 36036 ft 423 kts 184°
2026-04-28 11:07 47.44243 2.17196 36033 ft 423 kts 184°
2026-04-28 11:08 47.38365 2.17531 36032 ft 423 kts 184°
2026-04-28 11:08 47.32529 2.17863 36021 ft 422 kts 184°
2026-04-28 11:09 47.26658 2.18197 36015 ft 422 kts 184°
2026-04-28 11:09 47.20793 2.18529 36021 ft 421 kts 184°
2026-04-28 11:10 47.14932 2.18860 35999 ft 421 kts 184°
2026-04-28 11:10 47.09068 2.19504 36008 ft 428 kts 175°
2026-04-28 11:11 47.03348 2.22306 36029 ft 437 kts 164°
2026-04-28 11:11 46.97719 2.25732 36024 ft 437 kts 164°
2026-04-28 11:12 46.92113 2.29062 36011 ft 437 kts 165°
2026-04-28 11:12 46.86436 2.32379 36021 ft 436 kts 165°
2026-04-28 11:13 46.81024 2.36423 36030 ft 446 kts 153°
2026-04-28 11:13 46.75846 2.41438 36024 ft 446 kts 153°
2026-04-28 11:14 46.70682 2.46455 36011 ft 446 kts 153°
2026-04-28 11:14 46.65502 2.51412 36028 ft 445 kts 153°
2026-04-28 11:15 46.60311 2.56334 36032 ft 445 kts 153°
2026-04-28 11:15 46.55116 2.61241 36024 ft 446 kts 153°
2026-04-28 11:16 46.49912 2.66148 36026 ft 446 kts 153°
2026-04-28 11:16 46.44706 2.71047 36026 ft 446 kts 153°
2026-04-28 11:17 46.39497 2.75938 36030 ft 446 kts 153°
2026-04-28 11:17 46.34288 2.80817 36031 ft 446 kts 153°
2026-04-28 11:18 46.29070 2.85694 36023 ft 446 kts 153°
2026-04-28 11:18 46.23849 2.90561 36033 ft 447 kts 153°
2026-04-28 11:19 46.18623 2.95422 36033 ft 447 kts 153°
2026-04-28 11:19 46.13392 3.00277 36030 ft 448 kts 153°
2026-04-28 11:20 46.08151 3.05131 36014 ft 448 kts 153°
2026-04-28 11:20 46.02912 3.09974 36044 ft 448 kts 153°
2026-04-28 11:21 45.97651 3.14798 36049 ft 447 kts 156°
2026-04-28 11:21 45.94869 3.16653 36037 ft 437 kts 168°
2026-04-28 11:21 45.91958 3.17723 36034 ft 428 kts 178°
2026-04-28 11:22 45.86099 3.18018 36053 ft 420 kts 187°
2026-04-28 11:22 45.80246 3.17859 36050 ft 422 kts 187°
2026-04-28 11:23 45.74369 3.17738 36049 ft 423 kts 187°
2026-04-28 11:23 45.68479 3.17649 36033 ft 424 kts 187°
2026-04-28 11:24 45.62579 3.17571 36037 ft 425 kts 187°
2026-04-28 11:24 45.56667 3.17494 36047 ft 425 kts 187°
2026-04-28 11:25 45.50735 3.17416 36031 ft 427 kts 186°
2026-04-28 11:25 45.44792 3.17338 36046 ft 428 kts 186°
2026-04-28 11:26 45.38833 3.17261 36030 ft 428 kts 186°
2026-04-28 11:26 45.32896 3.17184 36021 ft 425 kts 186°
2026-04-28 11:27 45.26990 3.17107 36047 ft 424 kts 186°
2026-04-28 11:27 45.21094 3.17030 36042 ft 423 kts 186°
2026-04-28 11:28 45.15224 3.16955 36030 ft 421 kts 186°
2026-04-28 11:28 45.09426 3.16879 36038 ft 418 kts 186°
2026-04-28 11:29 45.03619 3.16803 36054 ft 417 kts 186°
2026-04-28 11:29 44.97803 3.16727 36035 ft 418 kts 186°
2026-04-28 11:30 44.91998 3.16649 36038 ft 417 kts 186°
2026-04-28 11:30 44.83310 3.16524 35735 ft 413 kts 186°
2026-04-28 11:31 44.80462 3.16486 35463 ft 406 kts 186°
2026-04-28 11:31 44.77650 3.16447 35082 ft 402 kts 186°
2026-04-28 11:31 44.74866 3.16407 34728 ft 399 kts 186°
2026-04-28 11:31 44.72102 3.16366 34363 ft 395 kts 186°
2026-04-28 11:32 44.69364 3.16326 33997 ft 392 kts 186°
2026-04-28 11:32 44.67558 3.16299 33720 ft 390 kts 186°
2026-04-28 11:32 44.64850 3.16260 33325 ft 387 kts 186°
2026-04-28 11:32 44.62168 3.16222 32962 ft 384 kts 186°
2026-04-28 11:33 44.59512 3.16198 32659 ft 380 kts 185°
2026-04-28 11:33 44.56887 3.16229 32351 ft 375 kts 185°
2026-04-28 11:33 44.54289 3.16283 32055 ft 372 kts 185°
2026-04-28 11:33 44.51710 3.16340 31695 ft 370 kts 185°
2026-04-28 11:34 44.49141 3.16394 31355 ft 368 kts 185°
2026-04-28 11:34 44.46585 3.16443 31007 ft 367 kts 185°
2026-04-28 11:34 44.44041 3.16491 30665 ft 365 kts 185°
2026-04-28 11:34 44.41509 3.16536 30327 ft 363 kts 185°
2026-04-28 11:35 44.38991 3.16580 29968 ft 361 kts 185°
2026-04-28 11:35 44.36480 3.16624 29566 ft 359 kts 184°
2026-04-28 11:35 44.34000 3.16667 29228 ft 355 kts 184°
2026-04-28 11:35 44.31537 3.16710 28859 ft 352 kts 184°
2026-04-28 11:36 44.29097 3.16752 28521 ft 349 kts 184°
2026-04-28 11:36 44.26676 3.16793 28156 ft 347 kts 184°
2026-04-28 11:36 44.24273 3.16834 27831 ft 344 kts 184°
2026-04-28 11:36 44.21889 3.16875 27492 ft 342 kts 184°
2026-04-28 11:37 44.19514 3.16916 27150 ft 340 kts 184°
2026-04-28 11:37 44.17160 3.16955 26804 ft 338 kts 184°
2026-04-28 11:37 44.14816 3.16994 26474 ft 336 kts 184°
2026-04-28 11:37 44.12491 3.17034 26161 ft 334 kts 184°
2026-04-28 11:38 44.10169 3.17069 25841 ft 333 kts 185°
2026-04-28 11:38 44.07881 3.16760 25435 ft 330 kts 195°
2026-04-28 11:38 44.05661 3.15912 24948 ft 331 kts 200°
2026-04-28 11:38 44.03465 3.14936 24549 ft 332 kts 201°
2026-04-28 11:39 44.01273 3.13950 24232 ft 330 kts 201°
2026-04-28 11:39 43.99092 3.12974 23897 ft 329 kts 200°
2026-04-28 11:39 43.96915 3.12008 23541 ft 328 kts 200°
2026-04-28 11:39 43.94743 3.11052 23170 ft 326 kts 200°
2026-04-28 11:40 43.92587 3.10107 22818 ft 324 kts 200°
2026-04-28 11:40 43.90441 3.09170 22479 ft 322 kts 200°
2026-04-28 11:40 43.88312 3.08242 22160 ft 320 kts 200°
2026-04-28 11:40 43.86200 3.07323 21847 ft 317 kts 200°
2026-04-28 11:41 43.84101 3.06409 21531 ft 315 kts 200°
2026-04-28 11:41 43.82013 3.05501 21209 ft 314 kts 200°
2026-04-28 11:41 43.79938 3.04600 20901 ft 312 kts 200°
2026-04-28 11:41 43.77899 3.03715 20577 ft 310 kts 200°
2026-04-28 11:42 43.75845 3.02828 20273 ft 309 kts 199°
2026-04-28 11:42 43.73753 3.02180 19965 ft 309 kts 190°
2026-04-28 11:42 43.71625 3.01819 19674 ft 308 kts 189°
2026-04-28 11:42 43.69509 3.01507 19364 ft 306 kts 188°
2026-04-28 11:43 43.67390 3.01198 19067 ft 305 kts 188°
2026-04-28 11:43 43.65283 3.00884 18763 ft 304 kts 188°
2026-04-28 11:43 43.63185 3.00565 18465 ft 303 kts 189°
2026-04-28 11:43 43.61094 3.00241 18132 ft 302 kts 189°
2026-04-28 11:44 43.59006 2.99914 17799 ft 301 kts 189°
2026-04-28 11:44 43.56932 2.99588 17477 ft 299 kts 189°
2026-04-28 11:44 43.54869 2.99262 17169 ft 298 kts 189°
2026-04-28 11:44 43.52818 2.98936 16871 ft 296 kts 188°
2026-04-28 11:45 43.50776 2.98611 16560 ft 294 kts 188°
2026-04-28 11:45 43.48749 2.98288 16272 ft 293 kts 188°
2026-04-28 11:45 43.46730 2.97967 15977 ft 291 kts 188°
2026-04-28 11:45 43.44725 2.97648 15681 ft 290 kts 188°
2026-04-28 11:46 43.42728 2.97331 15390 ft 288 kts 188°
2026-04-28 11:46 43.40741 2.97015 15096 ft 287 kts 188°
2026-04-28 11:46 43.38762 2.96701 14804 ft 286 kts 188°
2026-04-28 11:46 43.36792 2.96389 14517 ft 284 kts 188°
2026-04-28 11:47 43.34831 2.96078 14232 ft 284 kts 188°
2026-04-28 11:47 43.32871 2.95767 13944 ft 283 kts 188°
2026-04-28 11:47 43.30919 2.95457 13629 ft 282 kts 188°
2026-04-28 11:47 43.28972 2.95149 13313 ft 281 kts 188°
2026-04-28 11:48 43.27030 2.94842 12996 ft 280 kts 188°
2026-04-28 11:48 43.25101 2.94537 12712 ft 278 kts 188°
2026-04-28 11:48 43.23181 2.94234 12421 ft 277 kts 188°
2026-04-28 11:48 43.21272 2.93933 12138 ft 275 kts 188°
2026-04-28 11:49 43.19364 2.93791 11836 ft 276 kts 175°
2026-04-28 11:49 43.17482 2.94328 11551 ft 276 kts 168°
2026-04-28 11:49 43.15621 2.94970 11259 ft 275 kts 168°
2026-04-28 11:49 43.13767 2.95612 10975 ft 274 kts 168°
2026-04-28 11:50 43.11919 2.96244 10693 ft 274 kts 168°
2026-04-28 11:50 43.10095 2.96859 10414 ft 273 kts 168°
2026-04-28 11:50 43.08229 2.97482 10177 ft 270 kts 168°
2026-04-28 11:50 43.06451 2.98072 10044 ft 264 kts 168°
2026-04-28 11:51 43.04666 2.98661 9751 ft 264 kts 168°
2026-04-28 11:51 43.02891 2.99245 9482 ft 262 kts 169°
2026-04-28 11:51 43.01123 2.99824 9211 ft 260 kts 168°
2026-04-28 11:51 42.99365 3.00399 8950 ft 259 kts 168°
2026-04-28 11:52 42.97616 3.00972 8687 ft 258 kts 169°
2026-04-28 11:52 42.95873 3.01541 8420 ft 257 kts 168°
2026-04-28 11:52 42.94138 3.02108 8163 ft 256 kts 168°
2026-04-28 11:52 42.92411 3.02671 7906 ft 255 kts 168°
2026-04-28 11:53 42.90690 3.03232 7651 ft 254 kts 168°
2026-04-28 11:53 42.88978 3.03790 7400 ft 252 kts 168°
2026-04-28 11:53 42.87275 3.04370 7126 ft 252 kts 167°
2026-04-28 11:53 42.85587 3.04996 6878 ft 251 kts 166°
2026-04-28 11:54 42.83903 3.05631 6628 ft 250 kts 166°
2026-04-28 11:54 42.82224 3.06262 6364 ft 250 kts 166°
2026-04-28 11:54 42.80548 3.06890 6090 ft 249 kts 166°
2026-04-28 11:54 42.78879 3.07513 5832 ft 248 kts 166°
2026-04-28 11:55 42.77214 3.08134 5567 ft 247 kts 166°
2026-04-28 11:55 42.75567 3.08746 5405 ft 242 kts 166°
2026-04-28 11:55 42.73965 3.09342 5283 ft 236 kts 166°
2026-04-28 11:55 42.72406 3.09921 5176 ft 229 kts 166°
2026-04-28 11:56 42.70882 3.10406 5053 ft 221 kts 177°
2026-04-28 11:56 42.69414 3.09957 4863 ft 217 kts 205°
2026-04-28 11:56 42.68117 3.08940 4711 ft 213 kts 211°
2026-04-28 11:56 42.66845 3.07841 4481 ft 218 kts 211°
2026-04-28 11:57 42.65567 3.06737 4249 ft 217 kts 211°
2026-04-28 11:57 42.64292 3.05644 4004 ft 216 kts 211°
2026-04-28 11:57 42.63023 3.04563 3790 ft 214 kts 210°
2026-04-28 11:57 42.61782 3.03509 3571 ft 206 kts 210°
2026-04-28 11:58 42.60655 3.02403 3346 ft 197 kts 227°
2026-04-28 11:58 42.60253 3.00716 3205 ft 187 kts 277°
2026-04-28 11:58 42.60858 2.99239 3113 ft 179 kts 310°
2026-04-28 11:58 42.61759 2.98062 2875 ft 180 kts 319°
2026-04-28 11:59 42.62736 2.96997 2655 ft 180 kts 321°
2026-04-28 11:59 42.63746 2.96013 2415 ft 177 kts 326°
2026-04-28 11:59 42.64783 2.95115 2185 ft 175 kts 328°
2026-04-28 11:59 42.65811 2.94248 1945 ft 173 kts 329°
2026-04-28 12:00 42.66795 2.93419 1713 ft 162 kts 330°
2026-04-28 12:00 42.67710 2.92648 1516 ft 151 kts 330°
2026-04-28 12:00 42.68608 2.91896 1294 ft 152 kts 332°
2026-04-28 12:00 42.69513 2.91129 1096 ft 155 kts 332°
2026-04-28 12:01 42.70429 2.90357 894 ft 154 kts 330°
2026-04-28 12:01 42.71338 2.89589 726 ft 154 kts 334°
2026-04-28 12:01 42.72232 2.88843 506 ft 147 kts 334°
2026-04-28 12:01 42.73087 2.88125 291 ft 142 kts 331°
2026-04-28 12:02 42.73927 2.87408 146 ft 140 kts 334°
2026-04-28 12:02 42.74601 2.86849 148 ft 85 kts 328°
2026-04-28 12:02 42.74933 2.86569 147 ft 36 kts 328°
2026-04-28 12:02 42.75126 2.86409 148 ft 24 kts 329°
2026-04-28 12:03 42.75195 2.86322 148 ft 12 kts 283°
2026-04-28 12:03 42.75169 2.86225 147 ft 11 kts 222°
2026-04-28 12:03 42.75096 2.86207 147 ft 11 kts 160°
2026-04-28 12:03 42.75031 2.86260 147 ft 11 kts 148°
2026-04-28 12:04 42.74968 2.86311 147 ft 10 kts 148°
2026-04-28 12:04 42.74901 2.86344 147 ft 10 kts 158°
2026-04-28 12:04 42.74841 2.86393 147 ft 10 kts 148°
2026-04-28 12:04 42.74783 2.86441 147 ft 10 kts 148°
2026-04-28 12:05 42.74718 2.86496 146 ft 13 kts 148°
2026-04-28 12:05 42.74634 2.86566 146 ft 15 kts 148°
2026-04-28 12:05 42.74539 2.86646 147 ft 16 kts 148°
2026-04-28 12:05 42.74445 2.86725 147 ft 16 kts 148°
2026-04-28 12:06 42.74354 2.86802 147 ft 15 kts 148°
2026-04-28 12:06 42.74267 2.86873 147 ft 14 kts 149°
2026-04-28 12:06 42.74192 2.86952 147 ft 13 kts 142°
2026-04-28 12:06 42.74118 2.87015 147 ft 12 kts 148°
2026-04-28 12:07 42.74046 2.87075 146 ft 12 kts 148°
2026-04-28 12:07 42.73985 2.87060 146 ft 9 kts 230°
2026-04-28 12:07 42.73987 2.87024 147 ft 3 kts 333°
2026-04-28 12:07 42.74005 2.87018 147 ft 3 kts 348°
2026-04-28 12:08 42.74022 2.87014 147 ft 3 kts 349°
2026-04-28 12:08 42.74031 2.87011 147 ft 0 kts 349°